NUVIEW BRAVO

Last updated on Sat Aug 15 2026 00:03:03 GMT+0000 (Coordinated Universal Time)

1 62457U 24252D 26225.55355164 -.00000232 00000+0 00000+0 0 9996 2 62457 0.0657 172.5209 0001607 353.5378 272.0897 1.00271377 4364
UTC large
Height (km)
Speed (km/s)
/
Latitude / Longitude
Inclination (degrees)
Orbital Period (minutes)
Azimuth
Elevation
Range (km)
Doppler Factor

Next 0 passes for location: London (51.5072 / 0.1276)

No passes found over London.
NUVIEW BRAVO